AKDT,Max TemperatureF,Mean TemperatureF,Min TemperatureF,Max Dew PointF,MeanDew PointF,Min DewpointF,Max Humidity, Mean Humidity, Min Humidity, Max Sea Level PressureIn, Mean Sea Level PressureIn, Min Sea Level PressureIn, Max VisibilityMiles, Mean VisibilityMiles, Min VisibilityMiles, Max Wind SpeedMPH, Mean Wind SpeedMPH, Max Gust SpeedMPH,PrecipitationIn, CloudCover, Events, WindDirDegrees
2012-8-1,57,52,48,49,46,44,97,79,62,29.83,29.71,29.61,10,10,5,12,4,23,0.17,8,Rain,141
2012-8-2,55,51,48,49,46,44,100,83,71,29.99,29.83,29.65,10,10,4,17,7,23,0.05,7,Rain,265
2012-8-3,55,49,44,45,44,42,93,78,69,30.17,30.12,30.00,10,10,10,14,6,,0.00,3,,255
2012-8-4,53,50,46,47,45,42,97,80,69,30.14,30.03,29.90,10,10,10,9,4,,0.05,7,Rain,99
2012-8-5,54,49,45,49,46,43,100,89,69,29.90,29.88,29.86,10,10,10,5,1,,0.01,7,Rain,234
2012-8-6,57,52,46,49,47,45,100,89,69,29.93,29.84,29.81,10,10,10,10,2,,0.02,7,Rain,186
2012-8-7,57,52,46,48,47,46,100,90,72,29.98,29.95,29.93,10,10,10,14,5,,0.00,7,,61
2012-8-8,61,52,45,50,48,44,100,86,64,29.94,29.88,29.83,10,10,10,10,3,,0.00,6,,229
2012-8-9,61,53,46,51,49,45,97,80,67,30.08,29.99,29.90,10,10,10,16,4,,0.00,6,,242
2012-8-10,57,54,48,51,49,48,97,86,72,30.14,30.12,30.09,10,10,10,8,2,,0.00,6,,245
2012-8-11,62,53,44,51,48,44,100,91,58,30.13,30.11,30.07,10,9,1,16,4,23,0.00,5,,205
2012-8-12,62,52,43,49,47,43,100,86,60,30.10,30.04,29.99,10,10,10,16,4,,0.00,2,Fog,229
2012-8-13,59,51,45,51,49,45,100,93,77,30.13,30.09,30.04,10,10,10,16,4,24,0.00,5,,313
2012-8-14,61,55,51,51,49,46,96,85,67,30.14,30.11,30.06,10,10,10,10,3,,0.02,6,Rain,129
2012-8-15,59,52,48,52,49,46,93,85,70,30.13,30.10,30.07,10,10,10,8,3,,0.00,7,,253
2012-8-16,59,52,48,48,45,41,90,75,57,30.10,30.05,29.98,10,10,10,6,1,,0.00,7,Rain,55
2012-8-17,57,52,46,49,47,43,93,83,69,29.98,29.92,29.88,10,10,10,15,3,,0.00,5,,233
2012-8-18,55,46,39,48,43,39,100,86,69,29.91,29.89,29.86,10,9,2,12,2,20,0.09,4,Fog-Rain,119
2012-8-19,59,55,53,50,47,42,86,74,66,29.88,29.84,29.81,10,10,10,10,6,18,0.00,8,,207
2012-8-20,54,50,46,50,47,44,100,88,74,29.97,29.87,29.81,10,8,2,14,5,,0.07,7,Rain,244
2012-8-21,55,50,43,50,47,42,97,87,72,30.10,30.06,29.99,10,10,2,10,3,,0.00,6,,231
2012-8-22,57,48,41,48,44,40,100,84,60,30.06,29.94,29.75,10,10,8,16,4,,0.02,2,Rain,266
2012-8-23,55,52,48,50,48,45,97,87,77,29.82,29.69,29.64,10,10,6,12,3,20,0.41,7,Rain,42
2012-8-24,54,48,42,49,46,42,100,90,80,30.02,29.96,29.84,10,10,10,9,3,,0.01,4,Rain,273
2012-8-25,57,52,46,48,46,43,93,81,64,30.08,30.05,30.02,10,10,10,16,3,21,0.00,5,,257
2012-8-26,63,53,43,57,49,42,100,86,67,30.06,29.91,29.77,10,10,6,12,4,,0.11,6,Rain,291
2012-8-27,64,57,51,55,45,35,94,70,37,29.96,29.81,29.76,10,10,10,17,12,25,0.00,4,,269
2012-8-28,61,52,42,48,40,33,86,63,39,30.10,30.07,29.98,10,10,10,10,5,,0.00,1,,237
2012-8-29,62,50,39,50,43,39,97,76,51,30.09,30.03,29.94,10,10,10,14,4,,0.00,2,,23
2012-8-30,57,52,48,48,46,43,97,79,62,29.93,29.80,29.73,10,10,5,14,3,23,0.23,8,Rain,81
2012-8-31,64,50,46,49,47,46,100,96,75,29.78,29.71,29.59,10,5,1,6,1,,0.55,8,Rain,238